Regional Weather Roundup
Issued by NWS Albany, NY

Home | Current Version | Previous Version | Graphics & Text | Print | Product List | Glossary On
Versions: 1 2 3 4 5 6 7 8 9 10 11 12 13 14 15 16 17 18 19 20 21 22 23 24 25 26 27 28 29 30 31 32 33 34 35 36 37 38 39 40 41 42 43 44 45 46 47 48 49 50
288
ASUS41 KALY 190710
RWRALY

NEW YORK STATE HOURLY WEATHER ROUNDUP
NATIONAL WEATHER SERVICE ALBANY NY
200 AM EST THU JAN 19 2017

NOTE: "FAIR" INDICATES FEW OR NO CLOUDS BELOW 12,000 FEET WITH NO
SIGNIFICANT WEATHER AND/OR NO OBSTRUCTIONS TO VISIBILITY.

NYZ032-033-038>043-046>054-057>066-NYZ062>081-082-084-190800-
EAST


CITY           SKY/WX    TMP DP  RH WIND       PRES   REMARKS
ALBANY         CLOUDY    35  33  92 S3        30.01S FOG
GLENS FALLS    CLOUDY    36  33  89 S6        29.98S FOG     WCI  31
POUGHKEEPSIE   FOG       34  34 100 CALM      30.02R VSB 1/4
NEWBURGH       MOCLDY    34  34 100 W6        30.02R FOG     WCI  29
MONTGOMERY     FOG       33  32  96 SE3       30.00R VSB 1/4
WHITE PLAINS   MOCLDY    35  35 100 CALM      30.00R FOG
ISLIP          CLOUDY    38  37  97 N6        30.02R WCI  33
NEW YORK CITY  CLOUDY    42  36  79 CALM      30.03R
CENTRAL PARK   CLOUDY    40  35  83 CALM      30.05R
$$

NYZ005>009-017-018-044>046-055-056-190800-
CENTRAL


CITY           SKY/WX    TMP DP  RH WIND       PRES   REMARKS
FULTON         CLOUDY    37  35  92 SW3       30.00F FOG
SYRACUSE       CLOUDY    35  35 100 SW3       30.01S
ROME           CLOUDY    35  35 100 W6        30.02S FOG     WCI  30
ELMIRA         CLOUDY    38  33  82 SW5       30.01S WCI  34
BINGHAMTON     CLOUDY    33  33 100 W7        29.97F FOG     WCI  27
MONTICELLO     CLOUDY    34  34 100 W6        29.99S VSB 3/4 WCI  29
$$

NYZ026>034-041>043-087-190800-
NORTH


CITY           SKY/WX    TMP DP  RH WIND       PRES   REMARKS
WATERTOWN      CLOUDY    37  37 100 SW13      29.98S FOG     WCI  29
FORT DRUM      NOT AVBL
OGDENSBURG     CLOUDY    34  33  99 SW5       29.95S WCI  30
MASSENA        CLOUDY    34  34 100 SW8       29.95S WCI  27
SARANAC LAKE   CLOUDY    32  30  92 SW6       29.89S FOG     WCI  26
PLATTSBURGH    CLOUDY    33  32  96 CALM      29.94S
$$

NYZ001>004-010>016-019>021-085-190800-
WEST


CITY           SKY/WX    TMP DP  RH WIND       PRES   REMARKS
NIAGARA FALLS  CLOUDY    38  34  85 SW10      30.01S WCI  31
BUFFALO        DRIZZLE   36  34  92 SW18      30.02S WCI  26
DUNKIRK        CLOUDY    36  35  96 SW14G22   30.05R FOG     WCI  27
JAMESTOWN      CLOUDY    34  30  86 SW13      30.01S WCI  25
WELLSVILLE     CLOUDY    35  32  88 W13G18    29.99F FOG     WCI  26
ROCHESTER      CLOUDY    39  35  86 W14       30.00F WCI  31
PENN YAN       CLOUDY    38  31  76 SW10      30.00F WCI  31
$$

             KEY
       WCI = WIND CHILL INDEX
       VSB = VISIBILITY
       HX  = HEAT INDEX
$$




USA.gov is the U.S. government's official web portal to all federal, state and local government web resources and services.